Home   Weather   Koszalin   Past weeks

Flag for Poland Past Weather in Koszalin, Poland — Yesterday and Last 2 Weeks

53 °F


Feels Like: 50 °F
Forecast: 48 / 52 °F
Wind: 9 mph from West

Location: Koszalin

Current Time: Oct 28, 2016 at 6:10:40 PM

Latest Report: Oct 28, 2016 at 4:00 PM

Visibility: 13 mi

Pressure: 30.14 "Hg

Humidity: 85%

Dew Point: 49 °F

Location of KoszalinLocation

Past Weather in Koszalin — Graph


Koszalin Temperature Yesterday

Maximum temperature yesterday: 49 °F (at 11:00 PM)
Minimum temperature yesterday: 42 °F (at 7:00 AM)
Average temperature yesterday: 45 °F

High & Low Weather Summary for the Past Weeks

High54 °F (Oct 28, 3:00 PM)100% (Oct 25, 5:00 AM)30.42 "Hg (Oct 25, 5:00 AM)
Low36 °F (Oct 14, 8:00 AM)51% (Oct 14, 4:00 PM)29.93 "Hg (Oct 22, 7:00 AM)
Average45 °F89%30.17 "Hg
* Reported Oct 13 4:00 PM — Oct 28 4:00 PM, Koszalin, Weather by CustomWeather, © 2016

Note: Actual official high and low records may vary slightly from our data, if they occured in-between our weather recording intervals... More about our weather records


Koszalin Weather History for the Previous 24 Hours

Scroll right to see more
Time TempWeatherWind HumidityBarometerVisibility
4:00 PM
Fri, Oct 28
53 °FOvercast.9 mph85%30.14 "Hg12 mi
3:00 PM54 °FSprinkles. Overcast.12 mph92%30.13 "Hg6 mi
2:00 PM53 °FLow clouds.7 mph94%30.12 "Hg4 mi
1:00 PM52 °FFog.8 mph94%30.13 "Hg4 mi
12:00 PM52 °FLow clouds.6 mph95%30.15 "Hg3 mi
11:00 AM51 °FLight rain. Low clouds.7 mph95%30.15 "Hg4 mi
10:00 AM51 °FRain. Low clouds.7 mph94%30.17 "Hg2 mi
9:00 AM51 °FLow clouds.6 mph93%30.18 "Hg3 mi
8:00 AM51 °FFog.6 mph88%30.19 "Hg3 mi
7:00 AM51 °FFog.6 mph89%30.20 "Hg3 mi
6:00 AM51 °FFog.6 mph90%30.22 "Hg3 mi
5:00 AM51 °FFog.5 mph93%30.24 "Hg2 mi
4:00 AM50 °FFog.6 mph93%30.26 "Hg2 mi
3:00 AM51 °FFog.5 mph94%30.29 "Hg2 mi
2:00 AM50 °FFog.6 mph95%30.32 "Hg2 mi
1:00 AM50 °FFog.5 mph96%30.33 "Hg2 mi
12:00 AM49 °FFog.3 mph97%30.35 "Hg2 mi
11:00 PM
Thu, Oct 27
49 °FFog.3 mph98%30.37 "Hg2 mi
10:00 PM49 °FFog.3 mph99%30.38 "Hg1 mi
9:00 PM48 °FFog.3 mph99%30.38 "Hg1 mi
8:00 PM48 °FFog.3 mph99%30.39 "Hg1 mi
7:00 PM47 °FLow clouds.3 mph99%30.39 "Hg1 mi
6:00 PM47 °FDrizzle. Low clouds.2 mph98%30.39 "Hg1 mi
Weather by CustomWeather, © 2016

See weather overviewHow to use our weather pages